Spring River (Missouri), La Russell (07185700)

StateMissouriLatestHigh (304 cfs)
RiverSpring RiverRatingObservedEstimated
Updated2026-05-05 7:30 (1 hour ago)Flood - The river is flooding. Obstacles can be treacherous or deadly. The river should be avoided at this stage for casual trips and definitely for the inexperienced. Trips should be attempted only with protective gear and equipment.Flood(none)1286
Discharge304 cfs (median: 317 cfs)High - The river is high and potentially dangerous, especially for the young and / or inexperienced. Normal stream obstacles are sometimes difficult to navigate. Extended distances can be attempted, but canoe travel may not be advisable.High(none)302
Height2.13 feetGood - Conditions are ideal for a canoe or kayak. Boats typically will drag on fewer than one-quarter of riffles, if at all, and portages are unnecessary or rare. Normal float lengths can be attempted without a problem.Good(none)272
TrendSteady (falling over 24 hours)Low - River is low but can still be floated. Some riffles are okay but most come with significant dragging and might need a portage. Float lengths should be reduced to accommodate low flow, dragging, and portages.Low(none)157
USGSExternal icon USGS Site (External icon Duck Duck Go Maps)Poor - River is too low to float comfortably. Most or all riffles will drag or must be portaged and some obstacles (such as slick shelf rock) cause undue problems. Avoid the river at this stage for casual paddling trips.Poor(none)45

Trending Data

Plot Image

Trips for Spring River (Missouri), La Russell (07185700)

DateStartEndDistanceConditionDischargeHeightFishingDetails

A total of 0 rows are displayed.

Condition Descriptions

Fishing Conditions

Fish Species

Notes

Classic Trip List

The classic River Trips application is still available for use. It is updated with the new system using a data retrofit. It is no longer maintained. The original River Trips application is no longer updated (as of 1 Dec 2016) but can be checked for errors or for the condition of the data before it was converted to the new system.

Gauge Data Table

ObservationHeightDischargeMaximum
Discharge
Minimum
Discharge
Mean
Discharge
P05P10P20P25P50
(Median)
P75P80P90P95
2026-05-05 07:30 2.13 304 13800 (2022) 45 (1963) 789 85 102 151 197 317 682 735 1010 2420
2026-05-05 06:30 2.13 304 13800 (2022) 45 (1963) 789 85 102 151 197 317 682 735 1010 2420
2026-05-05 05:30 2.13 304 13800 (2022) 45 (1963) 789 85 102 151 197 317 682 735 1010 2420
2026-05-05 04:30 2.08 289 13800 (2022) 45 (1963) 789 85 102 151 197 317 682 735 1010 2420
2026-05-05 03:30 2.10 295 13800 (2022) 45 (1963) 789 85 102 151 197 317 682 735 1010 2420
2026-05-05 02:30 2.03 274 13800 (2022) 45 (1963) 789 85 102 151 197 317 682 735 1010 2420
2026-05-05 01:30 2.07 286 13800 (2022) 45 (1963) 789 85 102 151 197 317 682 735 1010 2420
2026-05-05 00:30 2.10 295 13800 (2022) 45 (1963) 789 85 102 151 197 317 682 735 1010 2420
2026-05-04 23:30 2.11 298 13800 (2022) 45 (1963) 789 85 102 151 197 317 682 735 1010 2420
2026-05-04 22:30 2.11 298 2870 (2017) 45 (1963) 516 89 101 150 178 322 670 781 1020 2010
2026-05-04 21:30 2.12 301 2870 (2017) 45 (1963) 516 89 101 150 178 322 670 781 1020 2010
2026-05-04 20:30 2.11 298 2870 (2017) 45 (1963) 516 89 101 150 178 322 670 781 1020 2010
2026-05-04 19:30 2.14 307 2870 (2017) 45 (1963) 516 89 101 150 178 322 670 781 1020 2010
2026-05-04 18:30 2.14 307 2870 (2017) 45 (1963) 516 89 101 150 178 322 670 781 1020 2010
2026-05-04 17:30 2.12 301 2870 (2017) 45 (1963) 516 89 101 150 178 322 670 781 1020 2010
2026-05-04 16:30 2.13 304 2870 (2017) 45 (1963) 516 89 101 150 178 322 670 781 1020 2010
2026-05-04 15:30 2.11 298 2870 (2017) 45 (1963) 516 89 101 150 178 322 670 781 1020 2010
2026-05-04 14:30 2.15 310 2870 (2017) 45 (1963) 516 89 101 150 178 322 670 781 1020 2010
2026-05-04 13:30 2.15 310 2870 (2017) 45 (1963) 516 89 101 150 178 322 670 781 1020 2010
2026-05-04 12:30 2.15 310 2870 (2017) 45 (1963) 516 89 101 150 178 322 670 781 1020 2010
2026-05-04 11:30 2.16 313 2870 (2017) 45 (1963) 516 89 101 150 178 322 670 781 1020 2010
2026-05-04 10:30 2.17 316 2870 (2017) 45 (1963) 516 89 101 150 178 322 670 781 1020 2010
2026-05-04 09:30 2.19 322 2870 (2017) 45 (1963) 516 89 101 150 178 322 670 781 1020 2010
2026-05-04 08:30 2.17 316 2870 (2017) 45 (1963) 516 89 101 150 178 322 670 781 1020 2010
2026-05-04 07:30 2.16 313 2870 (2017) 45 (1963) 516 89 101 150 178 322 670 781 1020 2010
2026-05-04 06:30 2.17 316 2870 (2017) 45 (1963) 516 89 101 150 178 322 670 781 1020 2010
2026-05-04 05:30 2.16 313 2870 (2017) 45 (1963) 516 89 101 150 178 322 670 781 1020 2010
2026-05-04 04:30 2.16 313 2870 (2017) 45 (1963) 516 89 101 150 178 322 670 781 1020 2010
2026-05-04 03:30 2.17 316 2870 (2017) 45 (1963) 516 89 101 150 178 322 670 781 1020 2010
2026-05-04 02:30 2.18 319 2870 (2017) 45 (1963) 516 89 101 150 178 322 670 781 1020 2010
2026-05-04 01:30 2.18 319 2870 (2017) 45 (1963) 516 89 101 150 178 322 670 781 1020 2010
2026-05-04 00:30 2.19 322 2870 (2017) 45 (1963) 516 89 101 150 178 322 670 781 1020 2010
2026-05-03 23:30 2.19 322 2870 (2017) 45 (1963) 516 89 101 150 178 322 670 781 1020 2010

A total of 33 rows are displayed for years 1957 through 2025.